Location: Newark
(40.9833°N, 0.0333°W)
Time: 02:29:13
(UTC+00:00)

Altair - Pass Details

Date: 03 November 2020
Orbit: 1502 x 1682 km, 47.2° (Epoch: 02 December)

Event Time Altitude Azimuth Distance (km) Brightness Sun altitude
Rises 07:30:28 0° 288° (WNW) 4,683 9.4 8.9°
Reaches altitude 10° 07:33:31 10° 292° (WNW) 3,719 8.9 9.4°
Maximum altitude 07:42:55 67° 15° (NNE) 1,693 7.9 10.9°
Drops below altitude 10° 07:52:42 10° 97° (E) 3,856 11.0 12.5°
Sets 07:55:55 0° 100° (E) 4,864 11.5 13.0°
